Location: Rosenheim
(47.8408°N, 12.2113°E)
Time: 18:01:32
(UTC+01:00)

ISS - Visible Passes

Search period start: 20 November 2017 00:00
Search period end: 30 November 2017 00:00
Orbit: 402 x 407 km, 51.6° (Epoch: 21 November)

Date Brightness Start Highest point End Pass type
(mag) Time Alt. Az. Time Alt. Az. Time Alt. Az.
27 Nov -0.9 19:07:11 10° SW 19:07:38 13° SW 19:07:38 13° SW visible
28 Nov -2.3 18:15:14 10° SSW 18:17:35 25° SSE 18:17:35 25° SSE visible
29 Nov -1.8 17:23:43 10° S 17:25:50 16° SE 17:27:28 12° ESE visible
29 Nov -1.6 18:58:37 10° WSW 19:00:07 25° WSW 19:00:07 25° WSW visible
